Regional Weather Roundup
Issued by NWS Charleston, SC

Current Version | Previous Version | Graphics & Text | Print | Product List | Glossary On
Versions: 1 2 3 4 5 6 7 8 9 10 11 12 13 14 15 16 17 18 19 20 21 22 23 24 25 26 27 28 29 30 31 32 33 34 35 36 37 38 39 40 41 42 43 44 45 46 47 48 49 50
000
ASUS42 KCHS 301228
RWRCHS

REGIONAL WEATHER ROUNDUP
NATIONAL WEATHER SERVICE CHARLESTON SC
800 AM EDT FRI SEP 30 2016

NOTE: "FAIR" INDICATES FEW OR NO CLOUDS BELOW 12,000 FEET WITH NO
SIGNIFICANT WEATHER AND/OR OBSTRUCTIONS TO VISIBILITY.

NOT ALL STATIONS ARE QUALITY CONTROLLED. USE DATA WITH CAUTION...
ESPECIALLY DEWPOINT OBSERVATIONS.

SCZ027-030-031-034>040-042>050-301300-
...SOUTHEAST SOUTH CAROLINA...

CITY           SKY/WX    TMP DP  RH WIND       PRES   REMARKS
N CHARLESTON   PTCLDY    70  68  93 CALM      29.98R
6HR MIN TEMP:  70; 6HR MAX TEMP:  73;

WATERFRONT PRK   N/A     75  74  97 VRB3      29.95R
MOUNT PLEASANT FOG       72  72 100 CALM      29.99R VSB 1
JOHNS ISLAND   FAIR      73  73 100 CALM      29.99R
PINOPOLIS        N/A     72  70  94 CALM      29.89R
MONCKS CORNER  PTSUNNY   68  66  94 CALM      29.99R FOG
SUMMERVILLE    FAIR      68  68 100 CALM      29.99R
BEAUFORT MCAS  PTCLDY    70  63  78 N5        29.99R
6HR MIN TEMP:  70; 6HR MAX TEMP:  75;

BEAUFORT ARPT  PTSUNNY   70  66  88 NW5       29.99R
HILTON HEAD IS PTCLDY    70  70 100 NW5       30.00
WALTERBORO     SUNNY     68  68 100 CALM      30.01R
ALLENDALE      FAIR      63  57  82 CALM      30.00R

...SOUTHERN MIDLANDS AND PEE DEE...

CITY           SKY/WX    TMP DP  RH WIND       PRES   REMARKS
GEORGETOWN     PTSUNNY   70  70 100 CALM      30.00R
KINGSTREE      PTSUNNY   70  68  94 E3        29.98R
ORANGEBURG     CLEAR     61  57  87 CALM      29.99R
6HR MIN TEMP:  60; 6HR MAX TEMP:  71;

BARNWELL       NOT AVBL
AIKEN          FAIR      57  52  82 CALM      30.03S
MANNING        FAIR      68  68 100 CALM      29.98R
COLUMBIA       PTCLDY    60  55  83 W6        29.98R
6HR MIN TEMP:  59; 6HR MAX TEMP:  69;

SUMTER         PTCLDY    66  61  84 CALM      29.96R
6HR MIN TEMP:  65; 6HR MAX TEMP:  73;

FLORENCE       FOG       72  71  97 E5        29.97S VSB 1/4
6HR MIN TEMP:  71; 6HR MAX TEMP:  73;

MYRTLE BEACH   MOCLDY    73  64  73 CALM      29.98S
N MYRTLE BEACH CLOUDY    78  74  87 S3        29.97R
6HR MIN TEMP:  77; 6HR MAX TEMP:  80; 6HR PCP: TRACE;


$$

GAZ063-065-086>088-099>101-113>116-118-119-134>141-150-301300-
...SOUTHEAST GEORGIA...

CITY           SKY/WX    TMP DP  RH WIND       PRES   REMARKS
SAVANNAH ARPT  PTCLDY    63  59  87 W3        30.01R
6HR MIN TEMP:  62; 6HR MAX TEMP:  73;

HUNTER AAF     CLEAR     63  63  97 W7        29.98R
6HR MIN TEMP:  63; 6HR MAX TEMP:  77;

FORT STEWART   CLEAR     62  57  84 CALM      29.98R
6HR MIN TEMP:  61; 6HR MAX TEMP:  72;

STATESBORO     CLEAR     62  59  90 W3        30.02R
SYLVANIA       NOT AVBL
CLAXTON        FAIR      60  60 100 CALM      30.02R

...CSRA...CENTRAL AND FAR SOUTHEAST GEORGIA...

CITY           SKY/WX    TMP DP  RH WIND       PRES   REMARKS
THOMSON        CLEAR     55  53  92 CALM      30.06R
AUGUSTA-BUSH   CLEAR     55  52  89 CALM      30.00R
6HR MIN TEMP:  54; 6HR MAX TEMP:  62;

AUGUSTA-DANIEL CLEAR     63  48  58 NW5       30.01R HAZE
SWAINSBORO     FAIR      59  52  77 NW3       30.03R
VIDALIA        PTCLDY    61  55  82 CALM      30.03R
EASTMAN        FAIR      56  55  97 CALM      30.06S
HAZLEHURST     FAIR      62  56  82 CALM      30.02R
ALMA           PTCLDY    61  53  75 NW3       30.02R
6HR MIN TEMP:  58; 6HR MAX TEMP:  68;

WAYCROSS       CLEAR     65  58  79 N3        30.03R
JESUP          FAIR      63  61  94 CALM      30.02R
BAXLEY         CLOUDY    64  55  72 CALM      30.02R
BRUNSWICK      CLEAR     66  64  94 CALM      30.02R
SAINT SIMONS   PTCLDY    69  60  73 NW5       30.00R
6HR MIN TEMP:  68; 6HR MAX TEMP:  77;


$$

SCZ027-028-034-036>038-045-046-048>050-GAZ119-141-301300-
...LAKE AND SUPPLEMENTAL COASTAL OBSERVATIONS...

STATION/POSITION TIME  TEMP    WIND        PRES    WAVE   SWELL
                       AIR SEA DIR/SP/G            HT/PER HT/PER/DIR
                 (UTC) (F)     (DEG/KT/KT) (MB)    (FT/S) (FT/S/D)
WINYAH BAY       1145   77     220/  3     1014.0R
LAKE MURRAY      1150   66     250/  4/  5 1014.9R
ACE BASIN NERRS  1145   70        CALM     1015.0S
FORT PULASKI     1200   68 81  310/  5/  5 1016.1
SAPELO ISLAND    1200   69     330/  5     1016.0

$$

ANZ835-935-AMZ111-154-330-350-352-354-370-450-454-472-301300-
...C-MAN AND BUOY OBSERVATIONS...

STATION/POSITION TIME  TEMP    WIND        PRES    WAVE   SWELL
                       AIR SEA DIR/SP/G            HT/PER HT/PER/DIR
                 (UTC) (F)     (DEG/KT/KT) (MB)    (FT/S) (FT/S/D)
BUOY 41004       1150   81 82  200/ 12/ 16 1014.4R   3/ 5   2/ 90/10
BUOY 41008       1150   77 82  330/  2/  4 1015.1R   3/ 5   2/180/ 5
FOLLY BEACH CMAN 1200   76     290/  3/  4 1015.2R
CAPERS NEARSHORE 1208   80 81  120/  8/ 12 1014.9R
FRIPP NEARSHORE  1208   74 81  320/  6/ 12 1015.4R


STATION/POSITION TIME  TEMP    WIND        PRES    WAVE   SWELL
                       AIR SEA DIR/SP/G            HT/PER HT/PER/DIR
                 (UTC) (F)     (DEG/KT/KT) (MB)    (FT/S) (FT/S/D)
5E ST. MARYS GA  1101      82                N/A     2/11
FRYING PAN BUOY  1210   82 82  150/ 12/ 14 1015.3
BUOY 41025       1150   80 77  190/  2/  4 1017.1R   4/10   3/ 50/10
CAPE LOOKOUT NC  1200   79     160/ 10/ 12 1016.4R
BUOY 41002       1150   81 83  190/ 10/ 12 1018.3R   4/ 6   3/160/ 6
BUOY 41010       NOT AVBL
ST AUGUSTINE FL  1200   73 82  180/  2/  3 1017.2R


$$



USA.gov is the U.S. government's official web portal to all federal, state and local government web resources and services.